| time (UTC) | temp C | wind direction | speed KPH | gust KPH | rain 1hr cm | rain 24hr cm | rain mn cm | humidity % | barometer mb |
| 20260510061601 | 11 | 165 | 0.0 | 0.0 | 0.00 | 0.00 | 0.00 | 100 | 980.8 |
| 20260510060603 | 11 | 165 | 0.0 | 0.0 | 0.00 | 0.00 | 0.00 | 100 | 980.7 |
| 20260510060101 | 11 | 165 | 0.0 | 0.0 | 0.00 | 0.00 | 0.00 | 100 | 980.7 |
| 20260510055604 | 11 | 165 | 0.0 | 0.0 | 0.00 | 0.00 | 0.00 | 100 | 980.8 |
| 20260510054601 | 11 | 165 | 0.0 | 0.0 | 0.00 | 0.00 | 0.00 | 100 | 980.8 |
| 20260510053603 | 11 | 165 | 0.0 | 0.0 | 0.00 | 0.00 | 0.00 | 100 | 980.8 |
| 20260510053102 | 11 | 165 | 0.0 | 0.0 | 0.00 | 0.00 | 0.00 | 100 | 980.9 |
| 20260510052603 | 12 | 165 | 0.0 | 0.0 | 0.00 | 0.00 | 0.00 | 100 | 980.9 |
| 20260510052103 | 12 | 165 | 0.0 | 0.0 | 0.00 | 0.00 | 0.00 | 100 | 980.9 |
| 20260510051603 | 12 | 165 | 0.0 | 1.6 | 0.00 | 0.00 | 0.00 | 100 | 980.8 |
| 20260510051103 | 12 | 165 | 0.0 | 1.6 | 0.00 | 0.00 | 0.00 | 100 | 980.9 |
| 20260510050602 | 12 | 165 | 0.0 | 1.6 | 0.00 | 0.00 | 0.00 | 100 | 980.9 |
| 20260510045553 | 12 | 165 | 0.0 | 1.6 | 0.00 | 0.00 | 0.00 | 100 | 980.9 |
| 20260510045049 | 12 | 165 | 0.0 | 1.6 | 0.00 | 0.00 | 0.00 | 100 | 980.9 |
| 20260510044544 | 12 | 165 | 0.0 | 1.6 | 0.00 | 0.00 | 0.00 | 100 | 980.9 |
| 20260510043531 | 12 | 165 | 0.0 | 1.6 | 0.00 | 0.00 | 0.00 | 100 | 981.0 |
| 20260510043031 | 12 | 165 | 0.0 | 0.0 | 0.00 | 0.00 | 0.00 | 100 | 981.0 |
| 20260510042017 | 12 | 165 | 0.0 | 0.0 | 0.00 | 0.00 | 0.00 | 100 | 981.0 |
| 20260510041510 | 12 | 165 | 0.0 | 1.6 | 0.00 | 0.00 | 0.00 | 100 | 981.0 |
| 20260510041011 | 12 | 165 | 0.0 | 1.6 | 0.00 | 0.00 | 0.00 | 100 | 980.9 |
| 20260510040509 | 12 | 166 | 0.0 | 1.6 | 0.00 | 0.00 | 0.00 | 100 | 981.1 |
| 20260510040001 | 12 | 0 | 0.0 | 0.0 | 0.00 | 0.00 | 0.00 | 100 | 980.9 |
| 20260510035503 | 12 | 0 | 0.0 | 1.6 | 0.00 | 0.00 | 0.00 | 100 | 980.9 |
| 20260510035001 | 12 | 0 | 0.0 | 1.6 | 0.00 | 0.00 | 0.00 | 100 | 981.0 |
| 20260510034500 | 12 | 0 | 0.0 | 1.6 | 0.00 | 0.00 | 0.00 | 100 | 980.9 |
| 20260510034004 | 12 | 166 | 0.0 | 0.0 | 0.00 | 0.00 | 0.00 | 100 | 981.0 |
| 20260510033002 | 12 | 166 | 0.0 | 0.0 | 0.00 | 0.00 | 0.00 | 100 | 981.1 |
| 20260510032503 | 13 | 166 | 0.0 | 0.0 | 0.00 | 0.00 | 0.00 | 100 | 981.0 |
| 20260510032005 | 13 | 166 | 0.0 | 0.0 | 0.00 | 0.00 | 0.00 | 100 | 981.0 |
| 20260510031504 | 13 | 166 | 0.0 | 0.0 | 0.00 | 0.00 | 0.00 | 100 | 980.9 |
| 20260510031001 | 13 | 166 | 0.0 | 0.0 | 0.00 | 0.00 | 0.00 | 100 | 981.0 |
| 20260510030502 | 13 | 166 | 0.0 | 0.0 | 0.00 | 0.00 | 0.00 | 100 | 981.0 |
| 20260510030013 | 13 | 166 | 0.0 | 1.6 | 0.00 | 0.00 | 0.00 | 100 | 981.0 |
| 20260510025506 | 13 | 166 | 0.0 | 1.6 | 0.00 | 0.00 | 0.00 | 100 | 981.0 |
| 20260510025002 | 13 | 167 | 0.0 | 0.0 | 0.00 | 0.00 | 0.00 | 100 | 980.9 |
| 20260510024504 | 13 | 167 | 0.0 | 0.0 | 0.00 | 0.00 | 0.00 | 100 | 980.8 |
| 20260510024001 | 13 | 167 | 0.0 | 0.0 | 0.00 | 0.00 | 0.00 | 100 | 980.8 |
| 20260510023501 | 13 | 167 | 0.0 | 0.0 | 0.00 | 0.00 | 0.00 | 100 | 980.8 |
| 20260510023004 | 13 | 167 | 0.0 | 0.0 | 0.00 | 0.00 | 0.00 | 100 | 980.7 |
| 20260510022504 | 13 | 167 | 0.0 | 0.0 | 0.00 | 0.00 | 0.00 | 100 | 980.6 |
| 20260510022001 | 13 | 167 | 0.0 | 0.0 | 0.00 | 0.00 | 0.00 | 100 | 980.6 |
| 20260510021001 | 13 | 167 | 0.0 | 0.0 | 0.00 | 0.00 | 0.00 | 100 | 980.6 |
| 20260510020503 | 14 | 167 | 0.0 | 0.0 | 0.00 | 0.00 | 0.00 | 100 | 980.6 |
| 20260510020004 | 14 | 167 | 0.0 | 0.0 | 0.00 | 0.00 | 0.00 | 100 | 980.6 |
| 20260510015504 | 14 | 167 | 0.0 | 0.0 | 0.00 | 0.00 | 0.00 | 100 | 980.6 |
| 20260510015005 | 14 | 167 | 0.0 | 0.0 | 0.00 | 0.00 | 0.00 | 100 | 980.7 |
| 20260510014503 | 15 | 167 | 0.0 | 0.0 | 0.00 | 0.00 | 0.00 | 100 | 980.6 |
| 20260510013959 | 15 | 167 | 0.0 | 0.0 | 0.00 | 0.00 | 0.00 | 100 | 980.6 |
| 20260510013447 | 15 | 167 | 0.0 | 0.0 | 0.00 | 0.00 | 0.00 | 100 | 980.6 |
| 20260510012945 | 15 | 167 | 0.0 | 0.0 | 0.00 | 0.00 | 0.00 | 100 | 980.4 |
| 20260510012441 | 15 | 167 | 0.0 | 0.0 | 0.00 | 0.00 | 0.00 | 100 | 980.3 |
| 20260510011933 | 15 | 167 | 0.0 | 1.6 | 0.00 | 0.00 | 0.00 | 100 | 980.2 |
| 20260510011436 | 15 | 167 | 0.0 | 1.6 | 0.00 | 0.00 | 0.00 | 100 | 980.1 |
| 20260510010931 | 15 | 167 | 0.0 | 1.6 | 0.00 | 0.00 | 0.00 | 100 | 980.1 |
| 20260510005428 | 15 | 178 | 1.6 | 6.4 | 0.00 | 0.00 | 0.00 | 100 | 979.7 |
| 20260510004929 | 15 | 116 | 3.2 | 4.8 | 0.00 | 0.00 | 0.00 | 100 | 979.7 |
| 20260510004430 | 15 | 276 | 0.0 | 0.0 | 0.00 | 0.00 | 0.00 | 100 | 979.7 |
| 20260510003931 | 16 | 276 | 0.0 | 0.0 | 0.00 | 0.00 | 0.00 | 4 | 979.7 |
| 20260510003430 | 16 | 276 | 0.0 | 3.2 | 0.00 | 0.00 | 0.00 | 9 | 979.6 |
| 20260510002930 | 16 | 276 | 0.0 | 3.2 | 0.00 | 0.00 | 0.00 | 14 | 979.6 |
| 20260510002428 | 16 | 276 | 0.0 | 4.8 | 0.00 | 0.00 | 0.00 | 18 | 979.6 |
| 20260510001929 | 16 | 277 | 1.6 | 4.8 | 0.00 | 0.00 | 0.00 | 22 | 979.6 |
| 20260510001430 | 17 | 200 | 1.6 | 6.4 | 0.00 | 0.00 | 0.00 | 28 | 979.5 |
| 20260510000929 | 17 | 200 | 1.6 | 6.4 | 0.00 | 0.00 | 0.00 | 35 | 979.6 |
| 20260510000429 | 17 | 22 | 0.0 | 0.0 | 0.00 | 0.00 | 0.00 | 38 | 979.7 |
| 20260509235430 | 18 | 22 | 0.0 | 3.2 | 0.00 | 0.00 | 0.00 | 42 | 979.6 |
| 20260509234928 | 18 | 22 | 0.0 | 4.8 | 0.00 | 0.00 | 0.00 | 43 | 979.6 |
| 20260509233931 | 18 | 11 | 0.0 | 0.0 | 0.00 | 0.00 | 0.00 | 45 | 979.6 |
| 20260509233432 | 18 | 11 | 0.0 | 0.0 | 0.00 | 0.00 | 0.00 | 46 | 979.6 |
| 20260509232931 | 18 | 11 | 0.0 | 0.0 | 0.00 | 0.00 | 0.00 | 46 | 979.5 |
| 20260509232428 | 18 | 11 | 0.0 | 0.0 | 0.00 | 0.00 | 0.00 | 47 | 979.5 |
| 20260509231429 | 18 | 11 | 0.0 | 0.0 | 0.00 | 0.00 | 0.00 | 47 | 979.5 |
| 20260509230931 | 18 | 11 | 0.0 | 0.0 | 0.00 | 0.00 | 0.00 | 48 | 979.5 |
| 20260509230432 | 19 | 11 | 0.0 | 1.6 | 0.00 | 0.00 | 0.00 | 49 | 979.5 |
| 20260509225929 | 19 | 11 | 0.0 | 3.2 | 0.00 | 0.00 | 0.00 | 49 | 979.5 |
| 20260509225429 | 19 | 11 | 1.6 | 4.8 | 0.00 | 0.00 | 0.00 | 50 | 979.5 |
| 20260509224931 | 19 | 11 | 1.6 | 8.0 | 0.00 | 0.00 | 0.00 | 51 | 979.5 |
| 20260509224428 | 19 | 40 | 1.6 | 8.0 | 0.00 | 0.00 | 0.00 | 51 | 979.5 |
| 20260509223926 | 19 | 40 | 1.6 | 3.2 | 0.00 | 0.00 | 0.00 | 51 | 979.5 |
| 20260509223426 | 19 | 40 | 0.0 | 3.2 | 0.00 | 0.00 | 0.00 | 51 | 979.3 |
| 20260509222922 | 19 | 40 | 0.0 | 4.8 | 0.00 | 0.00 | 0.00 | 51 | 979.4 |
| 20260509222414 | 19 | 40 | 0.0 | 4.8 | 0.00 | 0.00 | 0.00 | 52 | 979.4 |
| 20260509221902 | 20 | 40 | 0.0 | 4.8 | 0.00 | 0.00 | 0.00 | 52 | 979.4 |
| 20260509221402 | 20 | 38 | 0.0 | 4.8 | 0.00 | 0.00 | 0.00 | 52 | 979.3 |
| 20260509220905 | 20 | 38 | 3.2 | 4.8 | 0.00 | 0.00 | 0.00 | 52 | 979.4 |
| 20260509220405 | 20 | 11 | 0.0 | 4.8 | 0.00 | 0.00 | 0.00 | 52 | 979.3 |
| 20260509215904 | 20 | 5 | 1.6 | 4.8 | 0.00 | 0.00 | 0.00 | 53 | 979.3 |
| 20260509215407 | 20 | 0 | 0.0 | 6.4 | 0.00 | 0.00 | 0.00 | 52 | 979.3 |
| 20260509214906 | 20 | 340 | 1.6 | 6.4 | 0.00 | 0.00 | 0.00 | 52 | 979.3 |
| 20260509213902 | 20 | 35 | 0.0 | 6.4 | 0.00 | 0.00 | 0.00 | 53 | 979.5 |
| 20260509213402 | 20 | 335 | 1.6 | 12.9 | 0.00 | 0.00 | 0.00 | 52 | 979.4 |
| 20260509212901 | 20 | 336 | 6.4 | 12.9 | 0.00 | 0.00 | 0.00 | 52 | 979.4 |
| 20260509212403 | 20 | 60 | 1.6 | 4.8 | 0.00 | 0.00 | 0.00 | 52 | 979.4 |
| 20260509211902 | 20 | 153 | 0.0 | 4.8 | 0.00 | 0.00 | 0.00 | 53 | 979.5 |
| 20260509211402 | 20 | 153 | 1.6 | 4.8 | 0.00 | 0.00 | 0.00 | 53 | 979.6 |
| 20260509210401 | 20 | 140 | 0.0 | 3.2 | 0.00 | 0.00 | 0.00 | 53 | 979.6 |
| 20260509205900 | 20 | 140 | 1.6 | 3.2 | 0.00 | 0.00 | 0.00 | 53 | 979.6 |
| 20260509204901 | 20 | 136 | 1.6 | 6.4 | 0.00 | 0.00 | 0.00 | 53 | 979.5 |
| 20260509204401 | 19 | 120 | 1.6 | 6.4 | 0.00 | 0.00 | 0.00 | 53 | 979.6 |
| 20260509203858 | 20 | 117 | 1.6 | 4.8 | 0.00 | 0.00 | 0.00 | 53 | 979.5 |
| 20260509203401 | 20 | 117 | 1.6 | 4.8 | 0.00 | 0.00 | 0.00 | 53 | 979.6 |
| 20260509202856 | 20 | 215 | 1.6 | 4.8 | 0.00 | 0.00 | 0.00 | 53 | 979.6 |
| 20260509201338 | 20 | 155 | 3.2 | 6.4 | 0.00 | 0.00 | 0.00 | 53 | 979.6 |
| 20260509200833 | 20 | 189 | 1.6 | 8.0 | 0.00 | 0.00 | 0.00 | 53 | 979.6 |
| 20260509200330 | 20 | 178 | 1.6 | 9.7 | 0.00 | 0.00 | 0.00 | 53 | 979.7 |
| 20260509195831 | 20 | 213 | 1.6 | 9.7 | 0.00 | 0.00 | 0.00 | 52 | 979.6 |
| 20260509195329 | 20 | 176 | 4.8 | 8.0 | 0.00 | 0.00 | 0.00 | 53 | 979.7 |
| 20260509194829 | 19 | 195 | 1.6 | 12.9 | 0.00 | 0.00 | 0.00 | 53 | 979.6 |
| 20260509193829 | 19 | 146 | 3.2 | 9.7 | 0.00 | 0.00 | 0.00 | 53 | 979.8 |
| 20260509193328 | 19 | 138 | 3.2 | 6.4 | 0.00 | 0.00 | 0.00 | 53 | 979.9 |
| 20260509192831 | 19 | 182 | 3.2 | 9.7 | 0.00 | 0.00 | 0.00 | 53 | 979.8 |
| 20260509192330 | 19 | 238 | 3.2 | 11.3 | 0.00 | 0.00 | 0.00 | 53 | 979.8 |
| 20260509191829 | 19 | 171 | 6.4 | 11.3 | 0.00 | 0.00 | 0.00 | 53 | 979.9 |
| 20260509191329 | 19 | 178 | 1.6 | 6.4 | 0.00 | 0.00 | 0.00 | 53 | 979.9 |
| 20260509190331 | 19 | 178 | 3.2 | 11.3 | 0.00 | 0.00 | 0.00 | 53 | 980.1 |
| 20260509185829 | 20 | 182 | 4.8 | 9.7 | 0.00 | 0.00 | 0.00 | 52 | 980.1 |
| 20260509185329 | 20 | 175 | 3.2 | 9.7 | 0.00 | 0.00 | 0.00 | 52 | 980.1 |
| 20260509184829 | 19 | 225 | 3.2 | 9.7 | 0.00 | 0.00 | 0.00 | 53 | 980.1 |
| 20260509184329 | 19 | 190 | 4.8 | 9.7 | 0.00 | 0.00 | 0.00 | 53 | 980.2 |
| 20260509183830 | 19 | 142 | 4.8 | 9.7 | 0.00 | 0.00 | 0.00 | 53 | 980.2 |
| 20260509183331 | 18 | 142 | 3.2 | 9.7 | 0.00 | 0.00 | 0.00 | 53 | 980.2 |
| 20260509182831 | 18 | 174 | 4.8 | 9.7 | 0.00 | 0.00 | 0.00 | 53 | 980.3 |
| 20260509182330 | 18 | 119 | 3.2 | 8.0 | 0.00 | 0.00 | 0.00 | 53 | 980.4 |
| 20260509181830 | 18 | 82 | 3.2 | 8.0 | 0.00 | 0.00 | 0.00 | 53 | 980.4 |
| 20260509181332 | 18 | 167 | 4.8 | 8.0 | 0.00 | 0.00 | 0.00 | 53 | 980.6 |
| 20260509180829 | 18 | 134 | 1.6 | 6.4 | 0.00 | 0.00 | 0.00 | 53 | 980.8 |
| 20260509180331 | 18 | 178 | 3.2 | 8.0 | 0.00 | 0.00 | 0.00 | 53 | 981.0 |
| 20260509175330 | 18 | 189 | 3.2 | 6.4 | 0.00 | 0.00 | 0.00 | 53 | 981.1 |
| 20260509174829 | 17 | 145 | 3.2 | 6.4 | 0.00 | 0.00 | 0.00 | 53 | 981.1 |
| 20260509174329 | 17 | 160 | 1.6 | 6.4 | 0.00 | 0.00 | 0.00 | 51 | 981.3 |
| 20260509173829 | 17 | 107 | 1.6 | 4.8 | 0.00 | 0.00 | 0.00 | 50 | 981.4 |
| 20260509173329 | 17 | 98 | 0.0 | 3.2 | 0.00 | 0.00 | 0.00 | 52 | 981.6 |
| 20260509171833 | 17 | 178 | 1.6 | 6.4 | 0.00 | 0.00 | 0.00 | 54 | 981.6 |
| 20260509171330 | 17 | 182 | 0.0 | 6.4 | 0.00 | 0.00 | 0.00 | 54 | 981.6 |
| 20260509170829 | 17 | 34 | 1.6 | 6.4 | 0.00 | 0.00 | 0.00 | 54 | 981.5 |
| 20260509170329 | 17 | 171 | 3.2 | 6.4 | 0.00 | 0.00 | 0.00 | 53 | 981.3 |
| 20260509165329 | 18 | 40 | 1.6 | 3.2 | 0.00 | 0.00 | 0.00 | 53 | 981.3 |
| 20260509164830 | 17 | 40 | 0.0 | 4.8 | 0.00 | 0.00 | 0.00 | 53 | 981.3 |
| 20260509164330 | 17 | 44 | 1.6 | 4.8 | 0.00 | 0.00 | 0.00 | 54 | 981.4 |
| 20260509163831 | 17 | 43 | 1.6 | 3.2 | 0.00 | 0.00 | 0.00 | 54 | 981.3 |
| 20260509163331 | 17 | 144 | 0.0 | 6.4 | 0.00 | 0.00 | 0.00 | 54 | 981.5 |
| 20260509162831 | 17 | 144 | 3.2 | 6.4 | 0.00 | 0.00 | 0.00 | 53 | 981.5 |
| 20260509162329 | 18 | 74 | 1.6 | 6.4 | 0.00 | 0.00 | 0.00 | 52 | 981.5 |
| 20260509161329 | 18 | 123 | 3.2 | 6.4 | 0.00 | 0.00 | 0.00 | 52 | 981.7 |
| 20260509160828 | 18 | 352 | 3.2 | 8.0 | 0.00 | 0.00 | 0.00 | 53 | 981.5 |
| 20260509160329 | 18 | 63 | 3.2 | 8.0 | 0.00 | 0.00 | 0.00 | 52 | 981.5 |
| 20260509155829 | 18 | 298 | 0.0 | 8.0 | 0.00 | 0.00 | 0.00 | 53 | 981.5 |
| 20260509155324 | 18 | 46 | 1.6 | 8.0 | 0.00 | 0.00 | 0.00 | 53 | 981.5 |
| 20260509154819 | 18 | 345 | 0.0 | 4.8 | 0.00 | 0.00 | 0.00 | 53 | 981.5 |
| 20260509154325 | 18 | 345 | 0.0 | 4.8 | 0.00 | 0.00 | 0.00 | 52 | 981.5 |
| 20260509153811 | 18 | 352 | 0.0 | 3.2 | 0.00 | 0.00 | 0.00 | 52 | 981.5 |
| 20260509152804 | 17 | 352 | 0.0 | 4.8 | 0.00 | 0.00 | 0.00 | 52 | 981.7 |
| 20260509152305 | 17 | 350 | 1.6 | 4.8 | 0.00 | 0.00 | 0.00 | 52 | 981.7 |
| 20260509151802 | 17 | 238 | 1.6 | 6.4 | 0.00 | 0.00 | 0.00 | 52 | 981.7 |
| 20260509151302 | 16 | 232 | 1.6 | 6.4 | 0.00 | 0.00 | 0.00 | 52 | 981.8 |
| 20260509150803 | 16 | 155 | 1.6 | 6.4 | 0.00 | 0.00 | 0.00 | 52 | 982.0 |
| 20260509150301 | 16 | 192 | 0.0 | 4.8 | 0.00 | 0.00 | 0.00 | 51 | 982.1 |
| 20260509145805 | 15 | 192 | 1.6 | 4.8 | 0.00 | 0.00 | 0.00 | 47 | 982.2 |
| 20260509145301 | 15 | 179 | 1.6 | 4.8 | 0.00 | 0.00 | 0.00 | 49 | 982.2 |
| 20260509144801 | 15 | 180 | 0.0 | 3.2 | 0.00 | 0.00 | 0.00 | 49 | 982.0 |
| 20260509144304 | 15 | 180 | 0.0 | 0.0 | 0.00 | 0.00 | 0.00 | 43 | 981.9 |
| 20260509143800 | 15 | 180 | 0.0 | 1.6 | 0.00 | 0.00 | 0.00 | 45 | 981.9 |
| 20260509143301 | 15 | 180 | 0.0 | 1.6 | 0.00 | 0.00 | 0.00 | 40 | 981.9 |
| 20260509142804 | 15 | 180 | 0.0 | 0.0 | 0.00 | 0.00 | 0.00 | 43 | 981.8 |
| 20260509142300 | 15 | 180 | 0.0 | 0.0 | 0.00 | 0.00 | 0.00 | 45 | 981.8 |
| 20260509141802 | 15 | 180 | 0.0 | 0.0 | 0.00 | 0.00 | 0.00 | 48 | 981.8 |
| 20260509141253 | 15 | 180 | 0.0 | 0.0 | 0.00 | 0.00 | 0.00 | 48 | 981.6 |
| 20260509140753 | 15 | 180 | 0.0 | 1.6 | 0.00 | 0.00 | 0.00 | 49 | 981.5 |
| 20260509140249 | 15 | 180 | 0.0 | 1.6 | 0.00 | 0.00 | 0.00 | 49 | 981.5 |
| 20260509135748 | 15 | 180 | 0.0 | 3.2 | 0.00 | 0.00 | 0.00 | 49 | 981.5 |
| 20260509135242 | 14 | 180 | 1.6 | 3.2 | 0.00 | 0.00 | 0.00 | 48 | 981.5 |
| 20260509134744 | 14 | 180 | 0.0 | 3.2 | 0.00 | 0.00 | 0.00 | 49 | 981.4 |
| 20260509134237 | 14 | 180 | 0.0 | 3.2 | 0.00 | 0.00 | 0.00 | 49 | 981.4 |
| 20260509133241 | 14 | 179 | 1.6 | 3.2 | 0.00 | 0.00 | 0.00 | 49 | 981.4 |
| 20260509132733 | 14 | 180 | 0.0 | 3.2 | 0.00 | 0.00 | 0.00 | 49 | 981.3 |
| 20260509132233 | 14 | 180 | 0.0 | 3.2 | 0.00 | 0.00 | 0.00 | 51 | 981.4 |
| 20260509131735 | 13 | 179 | 0.0 | 6.4 | 0.00 | 0.00 | 0.00 | 52 | 981.2 |
| 20260509131232 | 13 | 179 | 1.6 | 6.4 | 0.00 | 0.00 | 0.00 | 52 | 981.1 |
| 20260509130730 | 13 | 169 | 1.6 | 8.0 | 0.00 | 0.00 | 0.00 | 51 | 981.2 |
| 20260509130233 | 13 | 169 | 1.6 | 8.0 | 0.00 | 0.00 | 0.00 | 52 | 981.2 |
| 20260509125731 | 13 | 184 | 1.6 | 4.8 | 0.00 | 0.00 | 0.00 | 52 | 981.3 |
| 20260509125230 | 13 | 185 | 1.6 | 4.8 | 0.00 | 0.00 | 0.00 | 52 | 981.4 |
| 20260509124730 | 13 | 184 | 1.6 | 4.8 | 0.00 | 0.00 | 0.00 | 52 | 981.4 |
| 20260509124230 | 14 | 184 | 1.6 | 6.4 | 0.00 | 0.00 | 0.00 | 51 | 981.4 |
| 20260509123730 | 13 | 184 | 1.6 | 6.4 | 0.00 | 0.00 | 0.00 | 52 | 981.5 |
| 20260509122233 | 13 | 150 | 0.0 | 0.0 | 0.00 | 0.00 | 0.00 | 52 | 981.4 |
| 20260509121229 | 13 | 150 | 0.0 | 3.2 | 0.00 | 0.00 | 0.00 | 50 | 981.4 |
| 20260509120728 | 13 | 150 | 0.0 | 3.2 | 0.00 | 0.00 | 0.00 | 52 | 981.4 |
| 20260509120229 | 13 | 111 | 1.6 | 3.2 | 0.00 | 0.00 | 0.00 | 52 | 981.5 |
| 20260509115729 | 13 | 138 | 0.0 | 3.2 | 0.00 | 0.00 | 0.00 | 52 | 981.5 |
| 20260509115232 | 13 | 137 | 0.0 | 4.8 | 0.00 | 0.00 | 0.00 | 53 | 981.4 |
| 20260509114228 | 13 | 0 | 1.6 | 4.8 | 0.00 | 0.00 | 0.00 | 53 | 981.2 |
| 20260509113730 | 13 | 0 | 0.0 | 1.6 | 0.00 | 0.00 | 0.00 | 52 | 981.3 |
| 20260509113228 | 13 | 0 | 0.0 | 1.6 | 0.00 | 0.00 | 0.00 | 53 | 981.3 |
| 20260509112723 | 13 | 0 | 0.0 | 1.6 | 0.00 | 0.00 | 0.00 | 54 | 981.2 |
| 20260509112226 | 13 | 0 | 0.0 | 3.2 | 0.00 | 0.00 | 0.00 | 54 | 981.0 |
| 20260509111724 | 13 | 0 | 0.0 | 3.2 | 0.00 | 0.00 | 0.00 | 54 | 981.0 |
| 20260509111220 | 13 | 0 | 0.0 | 3.2 | 0.00 | 0.00 | 0.00 | 54 | 981.0 |
| 20260509110722 | 12 | 0 | 1.6 | 3.2 | 0.00 | 0.00 | 0.00 | 54 | 980.9 |
| 20260509105211 | 12 | 0 | 0.0 | 3.2 | 0.00 | 0.00 | 0.00 | 55 | 980.6 |
| 20260509104711 | 12 | 235 | 1.6 | 4.8 | 0.00 | 0.00 | 0.00 | 55 | 980.7 |
| 20260509104206 | 12 | 235 | 0.0 | 4.8 | 0.00 | 0.00 | 0.00 | 55 | 980.7 |
| 20260509103703 | 12 | 230 | 0.0 | 6.4 | 0.00 | 0.00 | 0.00 | 55 | 980.6 |
| 20260509103202 | 12 | 230 | 0.0 | 6.4 | 0.00 | 0.00 | 0.00 | 55 | 980.7 |
| 20260509102702 | 12 | 234 | 0.0 | 6.4 | 0.00 | 0.00 | 0.00 | 55 | 980.8 |
| 20260509102203 | 12 | 205 | 0.0 | 3.2 | 0.00 | 0.00 | 0.00 | 55 | 980.8 |
| 20260509101702 | 12 | 204 | 0.0 | 3.2 | 0.00 | 0.00 | 0.00 | 55 | 980.8 |
| 20260509100201 | 13 | 204 | 0.0 | 4.8 | 0.00 | 0.00 | 0.00 | 55 | 980.7 |
| 20260509095704 | 13 | 226 | 1.6 | 4.8 | 0.00 | 0.00 | 0.00 | 55 | 980.5 |
| 20260509094703 | 13 | 198 | 1.6 | 9.7 | 0.00 | 0.00 | 0.00 | 55 | 980.6 |
| 20260509094200 | 13 | 229 | 1.6 | 9.7 | 0.00 | 0.00 | 0.00 | 55 | 980.7 |
| 20260509093702 | 13 | 176 | 3.2 | 8.0 | 0.00 | 0.00 | 0.00 | 55 | 980.7 |
| 20260509093203 | 13 | 0 | 1.6 | 9.7 | 0.00 | 0.00 | 0.00 | 55 | 980.7 |
| 20260509092707 | 13 | 0 | 4.8 | 9.7 | 0.00 | 0.00 | 0.00 | 55 | 980.7 |
| 20260509092206 | 13 | 0 | 3.2 | 8.0 | 0.00 | 0.00 | 0.00 | 55 | 980.7 |
| 20260509091704 | 13 | 0 | 1.6 | 8.0 | 0.00 | 0.00 | 0.00 | 55 | 980.6 |
| 20260509090702 | 12 | 162 | 4.8 | 9.7 | 0.00 | 0.00 | 0.00 | 55 | 980.9 |
| 20260509090205 | 12 | 225 | 3.2 | 9.7 | 0.00 | 0.00 | 0.00 | 54 | 980.9 |
| 20260509085704 | 12 | 200 | 3.2 | 9.7 | 0.00 | 0.00 | 0.00 | 55 | 980.8 |
| 20260509085202 | 12 | 184 | 3.2 | 8.0 | 0.00 | 0.00 | 0.00 | 54 | 980.7 |
| 20260509084702 | 12 | 0 | 3.2 | 8.0 | 0.00 | 0.00 | 0.00 | 54 | 980.9 |
| 20260509084202 | 12 | 0 | 1.6 | 8.0 | 0.00 | 0.00 | 0.00 | 54 | 981.0 |
| 20260509082701 | 12 | 0 | 4.8 | 12.9 | 0.00 | 0.00 | 0.00 | 54 | 981.0 |
| 20260509082202 | 12 | 0 | 3.2 | 11.3 | 0.00 | 0.00 | 0.00 | 54 | 980.9 |
| 20260509081701 | 12 | 173 | 4.8 | 11.3 | 0.00 | 0.00 | 0.00 | 54 | 981.0 |
| 20260509081203 | 12 | 223 | 1.6 | 8.0 | 0.00 | 0.00 | 0.00 | 54 | 981.0 |
| 20260509080704 | 12 | 0 | 1.6 | 9.7 | 0.00 | 0.00 | 0.00 | 54 | 981.1 |
| 20260509075701 | 12 | 167 | 3.2 | 8.0 | 0.00 | 0.00 | 0.00 | 53 | 981.1 |
| 20260509075201 | 12 | 153 | 3.2 | 6.4 | 0.00 | 0.00 | 0.00 | 53 | 981.2 |
| 20260509074703 | 12 | 173 | 3.2 | 6.4 | 0.00 | 0.00 | 0.00 | 53 | 981.2 |
| 20260509074202 | 12 | 178 | 1.6 | 6.4 | 0.00 | 0.00 | 0.00 | 52 | 981.1 |
| 20260509073701 | 12 | 182 | 1.6 | 6.4 | 0.00 | 0.00 | 0.00 | 52 | 981.2 |
| 20260509073204 | 12 | 182 | 0.0 | 4.8 | 0.00 | 0.00 | 0.00 | 52 | 981.1 |
| 20260509072702 | 12 | 182 | 0.0 | 3.2 | 0.00 | 0.00 | 0.00 | 52 | 981.2 |
| 20260509072201 | 12 | 181 | 1.6 | 3.2 | 0.00 | 0.00 | 0.00 | 52 | 981.2 |
| 20260509071202 | 12 | 181 | 0.0 | 4.8 | 0.00 | 0.00 | 0.00 | 52 | 981.2 |
| 20260509070202 | 12 | 182 | 1.6 | 3.2 | 0.00 | 0.00 | 0.00 | 52 | 981.4 |
| 20260509065705 | 12 | 182 | 1.6 | 3.2 | 0.00 | 0.00 | 0.00 | 52 | 981.3 |
| 20260509065202 | 12 | 182 | 0.0 | 3.2 | 0.00 | 0.00 | 0.00 | 52 | 981.5 |
| 20260509064700 | 12 | 182 | 1.6 | 6.4 | 0.00 | 0.00 | 0.00 | 52 | 981.4 |
| 20260509064204 | 12 | 182 | 1.6 | 6.4 | 0.00 | 0.00 | 0.00 | 52 | 981.4 |
| 20260509063702 | 12 | 171 | 0.0 | 4.8 | 0.00 | 0.00 | 0.00 | 52 | 981.4 |
| 20260509063203 | 12 | 153 | 1.6 | 4.8 | 0.00 | 0.00 | 0.00 | 52 | 981.5 |
| 20260509062703 | 12 | 215 | 1.6 | 4.8 | 0.00 | 0.00 | 0.00 | 52 | 981.5 |
| 20260509062204 | 12 | 234 | 0.0 | 6.4 | 0.00 | 0.00 | 0.00 | 52 | 981.6 |